Location: Nairn
(57.5833°N, 3.8667°W)
Time: 21:31:59
(UTC+00:00)

Altair - Pass Details

Date: 06 October 2022
Orbit: 1501 x 1682 km, 47.2° (Epoch: 05 December)

Event Time Altitude Azimuth Distance (km) Brightness Sun altitude
Exits shadow 05:19:49 - 227° (SW) 4,561 9.5 -10.2°
Reaches altitude 10° 05:22:24 10° 221° (SW) 3,815 9.1 -9.8°
Maximum altitude 05:31:07 39° 158° (SSE) 2,303 8.6 -8.7°
Drops below altitude 10° 05:40:05 10° 95° (E) 3,931 11.4 -7.5°
Sets 05:43:32 0° 88° (E) 4,931 12.9 -7.0°
